NORTHEAST SUFFOLK  -  Rip Current Statement Rip Current Statement        NORTHERN NASSAU  -  Rip Current Statement Rip Current Statement        NORTHERN QUEENS  -  Rip Current Statement Rip Current Statement        NORTHWEST SUFFOLK  -  Rip Current Statement Rip Current Statement        SOUTHEAST SUFFOLK  -  Rip Current Statement Rip Current Statement        SOUTHERN NASSAU  -  Rip Current Statement Rip Current Statement        SOUTHERN QUEENS  -  Rip Current Statement Rip Current Statement        SOUTHWEST SUFFOLK  -  Rip Current Statement Rip Current Statement      

Active alerts

Northern Queens
  Details for Northern Queens Rip Current Statement
Southern Queens
  Details for Southern Queens Rip Current Statement
Northern Nassau
  Details for Northern Nassau Rip Current Statement
Southern Nassau
  Details for Southern Nassau Rip Current Statement
Northwest Suffolk
  Details for Northwest Suffolk Rip Current Statement
Southwest Suffolk
  Details for Southwest Suffolk Rip Current Statement
Northeast Suffolk
  Details for Northeast Suffolk Rip Current Statement
Southeast Suffolk
  Details for Southeast Suffolk Rip Current Statement


WXM80 ListenWXM80 Stop

You find our weather info also at:

UK Metoffice

WeatherCloud

Weather Underground

Northeastern Weather Network

AWEKAS

Citizen Weather Observer Program (CWOP)

HAMweather, WeatherForYou, PWS Weather


Weather Underground History page Text

Daily Summary for March 18, 2017 Units:  Metric    English   Both
« Previous Day
Next Day »
Daily Weekly Monthly Yearly Custom
  High: Low: Average:
Temperature: 3.2 °C -2.8 °C 1.4 °C
Dew Point: 1.1 °C -6.4 °C -1.9 °C
Humidity: 90 % 55 % 79 %
Wind Speed: 24 km/h 0 km/h 10 km/h
Wind Gust: 35.4 km/h - -
Wind:- - East
Pressure: 1023.2 hPa 1019.9 hPa -
Precipitation: 0.25 mm    
Historical Graphs
 
 
Tabular Data for March 18, 2017
Time Temperature Dew Point Pressure Wind Wind Speed Wind Gust Humidity Rainfall Rate (Hourly)
00:01 1.7 °C -6.4 °C 1022.9 hPa SW 3.5 km/h 11.1 km/h 55 % 0 mm
00:06 1.7 °C -6.4 °C 1022.9 hPa WSW 4.7 km/h 11.1 km/h 55 % 0 mm
00:11 1.8 °C -6.3 °C 1022.9 hPa SW 3.5 km/h 5.6 km/h 55 % 0 mm
00:16 1.8 °C -6.1 °C 1022.9 hPa WSW 3.2 km/h 5.6 km/h 56 % 0 mm
00:21 1.8 °C -6 °C 1022.6 hPa SW 3.9 km/h 5.6 km/h 56 % 0 mm
00:26 1.8 °C -6.1 °C 1022.6 hPa SW 2.4 km/h 5.6 km/h 56 % 0 mm
00:31 1.8 °C -6.1 °C 1022.6 hPa SW 3.2 km/h 5.6 km/h 56 % 0 mm
00:36 1.8 °C -6.1 °C 1022.6 hPa SW 3.5 km/h 5.6 km/h 56 % 0 mm
00:41 1.7 °C -5.9 °C 1022.9 hPa SSW 4.5 km/h 7.4 km/h 57 % 0 mm
00:46 1.7 °C -5.9 °C 1022.6 hPa SW 2.4 km/h 5.6 km/h 57 % 0 mm
00:51 1.7 °C -6.2 °C 1022.6 hPa SW 1.1 km/h 3.7 km/h 56 % 0 mm
00:56 1.7 °C -6.2 °C 1022.6 hPa SW 2.4 km/h 5.6 km/h 56 % 0 mm
01:01 1.6 °C -5.8 °C 1022.6 hPa SW 1.3 km/h 5.6 km/h 58 % 0 mm
01:06 1.5 °C -6.1 °C 1022.6 hPa SW 0.6 km/h 3.7 km/h 57 % 0 mm
01:11 1.4 °C -5.9 °C 1022.6 hPa SW 1.4 km/h 1.9 km/h 58 % 0 mm
01:16 1.3 °C -6.1 °C 1022.6 hPa SW 1 km/h 3.2 km/h 58 % 0 mm
01:21 1.3 °C -5.9 °C 1022.6 hPa WSW 0.5 km/h 1.9 km/h 59 % 0 mm
01:26 1.2 °C -5.9 °C 1022.6 hPa Calm   1.9 km/h 59 % 0 mm
01:31 1.1 °C -6 °C 1022.6 hPa WSW 0.8 km/h 1.9 km/h 59 % 0 mm
01:36 1.1 °C -5.8 °C 1022.6 hPa WSW 0.5 km/h 3.7 km/h 60 % 0 mm
01:41 0.9 °C -5.9 °C 1022.6 hPa Calm     60 % 0 mm
01:46 0.8 °C -5.6 °C 1022.9 hPa Calm     62 % 0 mm
01:51 0.7 °C -5.7 °C 1022.9 hPa Calm     62 % 0 mm
01:56 0.6 °C -5.6 °C 1022.6 hPa Calm     63 % 0 mm
02:01 0.4 °C -5.8 °C 1022.9 hPa Calm     63 % 0 mm
02:06 0.3 °C -5.5 °C 1022.9 hPa WSW 0.6 km/h 3.2 km/h 65 % 0 mm
02:11 0.1 °C -5.6 °C 1022.9 hPa Calm     66 % 0 mm
02:16 -0.3 °C -5.7 °C 1022.9 hPa Calm   1.9 km/h 67 % 0 mm
02:21 -0.3 °C -5.2 °C 1022.6 hPa Calm     70 % 0 mm
02:26 -0.4 °C -5 °C 1022.9 hPa WSW 1.1 km/h 1.9 km/h 71 % 0 mm
02:31 -0.6 °C -4.6 °C 1022.9 hPa WSW 1.9 km/h 3.7 km/h 74 % 0 mm
02:36 -0.6 °C -4.4 °C 1022.9 hPa WSW 1.1 km/h 3.7 km/h 75 % 0 mm
02:41 -0.6 °C -4.5 °C 1022.9 hPa Calm     75 % 0 mm
02:46 -0.7 °C -4.9 °C 1022.6 hPa Calm     73 % 0 mm
02:51 -0.8 °C -5 °C 1022.6 hPa WSW 1 km/h 3.7 km/h 73 % 0 mm
02:52 -0.7 °C -5.2 °C 1022.6 hPa WSW 0.6 km/h 3.7 km/h 72 % 0 mm
02:57 -0.8 °C -5.1 °C 1022.6 hPa Calm     73 % 0 mm
03:02 -0.9 °C -5.1 °C 1022.6 hPa Calm     73 % 0 mm
03:07 -0.9 °C -5 °C 1022.6 hPa Calm     74 % 0 mm
03:12 -1.1 °C -5.3 °C 1022.6 hPa Calm     73 % 0 mm
03:17 -1.2 °C -5.2 °C 1022.6 hPa Calm     74 % 0 mm
03:22 -1.3 °C -5.3 °C 1022.2 hPa Calm     74 % 0 mm
03:27 -1.4 °C -5.2 °C 1022.2 hPa Calm     75 % 0 mm
03:32 -1.5 °C -5.3 °C 1022.2 hPa Calm     75 % 0 mm
03:37 -1.6 °C -5.4 °C 1022.2 hPa Calm     75 % 0 mm
03:42 -1.7 °C -5.4 °C 1022.2 hPa Calm     76 % 0 mm
03:47 -1.8 °C -5.5 °C 1022.6 hPa Calm     76 % 0 mm
03:52 -2 °C -5.3 °C 1022.2 hPa Calm     78 % 0 mm
03:57 -2 °C -5.2 °C 1022.6 hPa Calm     79 % 0 mm
04:02 -2 °C -5.2 °C 1022.2 hPa Calm     79 % 0 mm
04:07 -2.1 °C -5.2 °C 1022.2 hPa Calm     79 % 0 mm
04:12 -2.2 °C -5.5 °C 1022.2 hPa Calm     78 % 0 mm
04:17 -2.2 °C -5.6 °C 1022.2 hPa Calm     78 % 0 mm
04:22 -2.3 °C -5.4 °C 1021.9 hPa Calm     79 % 0 mm
04:27 -2.3 °C -5.3 °C 1021.9 hPa Calm     80 % 0 mm
04:32 -2.4 °C -5.2 °C 1021.9 hPa Calm     81 % 0 mm
04:37 -2.4 °C -5.1 °C 1021.9 hPa Calm     82 % 0 mm
04:42 -2.4 °C -4.9 °C 1022.2 hPa Calm     83 % 0 mm
04:47 -2.4 °C -4.7 °C 1022.2 hPa Calm     84 % 0 mm
04:53 -2.3 °C -4.5 °C 1022.2 hPa Calm     85 % 0 mm
04:58 -2.4 °C -4.6 °C 1022.2 hPa Calm     85 % 0 mm
05:03 -2.4 °C -4.6 °C 1021.9 hPa WSW 0.2 km/h 1.9 km/h 85 % 0 mm
05:08 -2.4 °C -4.4 °C 1021.9 hPa Calm     86 % 0 mm
05:13 -2.4 °C -4.4 °C 1021.9 hPa Calm   1.9 km/h 86 % 0 mm
05:18 -2.4 °C -4.4 °C 1022.2 hPa Calm     86 % 0 mm
05:23 -2.3 °C -4.2 °C 1022.2 hPa Calm     87 % 0 mm
05:28 -2.3 °C -4.2 °C 1022.2 hPa Calm     87 % 0 mm
05:33 -2.3 °C -4.2 °C 1022.2 hPa Calm     87 % 0 mm
05:38 -2.3 °C -4.2 °C 1022.2 hPa Calm     87 % 0 mm
05:43 -2.4 °C -4.3 °C 1022.2 hPa Calm     87 % 0 mm
05:53 -2.5 °C -4.4 °C 1022.2 hPa Calm     87 % 0 mm
05:58 -2.6 °C -4.4 °C 1022.2 hPa Calm     87 % 0 mm
06:03 -2.6 °C -4.5 °C 1022.6 hPa Calm     87 % 0 mm
06:08 -2.6 °C -4.3 °C 1022.2 hPa Calm     88 % 0 mm
06:13 -2.7 °C -4.4 °C 1022.2 hPa Calm     88 % 0 mm
06:18 -2.7 °C -4.4 °C 1022.6 hPa Calm     88 % 0 mm
06:23 -2.7 °C -4.4 °C 1022.6 hPa Calm     88 % 0 mm
06:28 -2.7 °C -4.4 °C 1022.6 hPa Calm     88 % 0 mm
06:33 -2.8 °C -4.5 °C 1022.2 hPa Calm     88 % 0 mm
06:38 -2.8 °C -4.5 °C 1022.2 hPa WSW 0.5 km/h 1.6 km/h 88 % 0 mm
06:43 -2.8 °C -4.3 °C 1022.2 hPa WSW 1.1 km/h 1.9 km/h 89 % 0 mm
06:48 -2.7 °C -4.3 °C 1022.2 hPa Calm     89 % 0 mm
06:54 -2.7 °C -4.3 °C 1022.2 hPa Calm     89 % 0 mm
06:59 -2.8 °C -4.3 °C 1022.6 hPa Calm     89 % 0 mm
07:04 -2.7 °C -4.3 °C 1022.6 hPa SW 1.6 km/h 3.7 km/h 89 % 0 mm
07:09 -2.6 °C -4 °C 1022.6 hPa East 2.1 km/h 3.7 km/h 90 % 0 mm
07:14 -2.3 °C -3.8 °C 1022.6 hPa ENE 5.1 km/h 8 km/h 90 % 0 mm
07:19 -1.6 °C -3 °C 1022.6 hPa ENE 9 km/h 11.3 km/h 90 % 0 mm
07:24 -0.8 °C -2.5 °C 1022.6 hPa ENE 13 km/h 16.7 km/h 88 % 0 mm
07:29 0 °C -2.6 °C 1022.6 hPa ENE 9.8 km/h 14.8 km/h 83 % 0 mm
07:34 0.6 °C -2.8 °C 1022.6 hPa NE 11.7 km/h 16.1 km/h 78 % 0 mm
07:39 0.9 °C -3.3 °C 1022.9 hPa NE 12.9 km/h 18.5 km/h 73 % 0 mm
07:49 1.1 °C -3.6 °C 1022.9 hPa East 10.9 km/h 14.8 km/h 71 % 0 mm
07:54 1.1 °C -3.9 °C 1022.9 hPa ENE 11.1 km/h 18.5 km/h 69 % 0 mm
07:59 1.1 °C -4.2 °C 1023.2 hPa ENE 10.6 km/h 17.7 km/h 68 % 0 mm
08:04 1.1 °C -4 °C 1022.9 hPa ENE 11.7 km/h 18.5 km/h 69 % 0 mm
08:10 1.1 °C -3.8 °C 1022.9 hPa ENE 15.3 km/h 15.3 km/h 70 % 0 mm
08:15 1.1 °C -3.8 °C 1023.2 hPa ENE 11.7 km/h 18.5 km/h 70 % 0 mm
08:20 1 °C -3.9 °C 1022.9 hPa ENE 11.4 km/h 18.5 km/h 70 % 0 mm
08:25 1 °C -3.7 °C 1022.9 hPa ENE 8.2 km/h 13 km/h 71 % 0 mm
08:30 1.1 °C -3.4 °C 1022.9 hPa ENE 11.1 km/h 14.8 km/h 72 % 0 mm
08:35 1.1 °C -3.4 °C 1022.9 hPa East 12.9 km/h 18.5 km/h 72 % 0 mm
08:40 1.2 °C -3.2 °C 1022.9 hPa ENE 7.9 km/h 18.5 km/h 73 % 0 mm
08:45 1.2 °C -3.4 °C 1022.9 hPa ENE 12.6 km/h 14.8 km/h 71 % 0 mm
08:50 1.3 °C -3.6 °C 1022.9 hPa East 9 km/h 13 km/h 70 % 0 mm
08:55 1.4 °C -3.1 °C 1022.9 hPa ENE 8.7 km/h 13 km/h 72 % 0 mm
09:05 1.6 °C -3.1 °C 1022.9 hPa East 7.9 km/h 14.8 km/h 71 % 0 mm
09:10 1.7 °C -2.8 °C 1022.9 hPa ENE 10.6 km/h 14.8 km/h 72 % 0 mm
09:15 1.7 °C -2.8 °C 1023.2 hPa East 10.8 km/h 14.5 km/h 72 % 0 mm
09:20 1.8 °C -2.7 °C 1022.9 hPa East 11.3 km/h 14.8 km/h 72 % 0 mm
09:25 1.8 °C -2.5 °C 1022.9 hPa East 13.2 km/h 14.8 km/h 73 % 0 mm
09:30 1.9 °C -2.3 °C 1022.9 hPa ENE 13.4 km/h 14.8 km/h 74 % 0 mm
09:36 1.9 °C -2 °C 1022.6 hPa ENE 10.8 km/h 14.8 km/h 75 % 0 mm
09:41 2 °C -1.8 °C 1022.6 hPa ENE 11.6 km/h 14.5 km/h 76 % 0 mm
09:46 2.1 °C -1.7 °C 1022.6 hPa ENE 12.9 km/h 14.8 km/h 76 % 0 mm
09:51 2.1 °C -1.7 °C 1022.6 hPa East 10.5 km/h 14.8 km/h 76 % 0 mm
09:56 2.2 °C -1.8 °C 1022.9 hPa East 11.9 km/h 16.7 km/h 75 % 0 mm
10:01 2.2 °C -1.8 °C 1022.9 hPa East 9 km/h 13 km/h 75 % 0 mm
10:06 2.2 °C -1.9 °C 1022.9 hPa East 12.4 km/h 18.5 km/h 74 % 0 mm
10:11 2.2 °C -1.9 °C 1023.2 hPa ENE 12.4 km/h 14.8 km/h 74 % 0 mm
10:16 2.2 °C -1.8 °C 1022.9 hPa East 13 km/h 16.7 km/h 75 % 0 mm
10:21 2.3 °C -1.9 °C 1022.9 hPa East 11.4 km/h 16.7 km/h 74 % 0 mm
10:26 2.4 °C -1.8 °C 1022.9 hPa ENE 11.1 km/h 14.8 km/h 74 % 0 mm
10:31 2.4 °C -1.7 °C 1022.9 hPa East 14.5 km/h 20.4 km/h 74 % 0 mm
10:36 2.4 °C -1.6 °C 1022.9 hPa East 14.8 km/h 18.5 km/h 75 % 0 mm
10:41 2.4 °C -1.3 °C 1022.6 hPa ENE 15.8 km/h 18.5 km/h 76 % 0 mm
10:46 2.4 °C -1.3 °C 1022.6 hPa ENE 13 km/h 18.5 km/h 76 % 0 mm
10:51 2.4 °C -1.3 °C 1022.6 hPa ENE 14.6 km/h 20.4 km/h 76 % 0 mm
10:56 2.4 °C -1.3 °C 1022.6 hPa ENE 14.2 km/h 18.5 km/h 76 % 0 mm
11:01 2.5 °C -1.1 °C 1022.2 hPa East 13.8 km/h 18.5 km/h 77 % 0 mm
11:06 2.5 °C -1.3 °C 1022.6 hPa ENE 13 km/h 18.5 km/h 76 % 0 mm
11:11 2.6 °C -1 °C 1022.6 hPa ENE 14 km/h 20.9 km/h 77 % 0 mm
11:16 2.7 °C -1.1 °C 1022.2 hPa ENE 16.4 km/h 20.4 km/h 76 % 0 mm
11:21 3 °C -0.8 °C 1022.2 hPa ENE 16.1 km/h 22.2 km/h 76 % 0 mm
11:27 3.1 °C -0.9 °C 1022.2 hPa ENE 14.5 km/h 27.8 km/h 75 % 0 mm
11:32 2.9 °C -1.1 °C 1022.2 hPa ENE 13.4 km/h 18.5 km/h 75 % 0 mm
11:37 2.8 °C -1.1 °C 1022.2 hPa ENE 17.2 km/h 18.5 km/h 76 % 0 mm
11:42 2.6 °C -1.2 °C 1022.2 hPa ENE 16.1 km/h 22.2 km/h 76 % 0 mm
11:47 2.4 °C -1.2 °C 1022.2 hPa ENE 14.3 km/h 25.9 km/h 77 % 0 mm
11:52 2.3 °C -1.1 °C 1022.2 hPa ENE 15.6 km/h 18.5 km/h 78 % 0 mm
11:57 2.3 °C -1.2 °C 1021.9 hPa East 14.8 km/h 24.1 km/h 78 % 0 mm
12:02 2.2 °C -1.4 °C 1021.9 hPa ENE 18.3 km/h 20.9 km/h 77 % 0 mm
12:07 2.2 °C -1.3 °C 1021.6 hPa East 18.5 km/h 27.8 km/h 78 % 0 mm
12:17 2.2 °C -1.2 °C 1021.9 hPa ENE 14.2 km/h 22.2 km/h 78 % 0 mm
12:22 2.3 °C -1 °C 1021.9 hPa East 16.1 km/h 20.4 km/h 79 % 0 mm
12:27 2.3 °C -0.8 °C 1021.9 hPa East 13.8 km/h 16.7 km/h 80 % 0 mm
12:32 2.3 °C -0.9 °C 1021.6 hPa ENE 15.1 km/h 20.4 km/h 79 % 0 mm
12:37 2.4 °C -0.7 °C 1021.6 hPa ENE 15.9 km/h 22.2 km/h 80 % 0 mm
12:43 2.4 °C -0.7 °C 1021.6 hPa ENE 15.4 km/h 22.5 km/h 80 % 0 mm
12:48 2.5 °C -0.6 °C 1021.6 hPa ENE 12.9 km/h 19.3 km/h 80 % 0 mm
12:53 2.6 °C -0.3 °C 1021.6 hPa East 12.9 km/h 22.5 km/h 81 % 0 mm
12:58 2.7 °C -0.3 °C 1021.6 hPa ENE 16.1 km/h 18.5 km/h 81 % 0 mm
13:03 2.7 °C -0.2 °C 1021.6 hPa East 16.1 km/h 24.1 km/h 81 % 0 mm
13:08 2.8 °C -0.2 °C 1021.6 hPa ENE 12.9 km/h 19.3 km/h 81 % 0 mm
13:13 2.8 °C -0.1 °C 1021.6 hPa ENE 16.1 km/h 20.9 km/h 81 % 0 mm
13:18 2.8 °C -0.1 °C 1021.2 hPa ENE 16.1 km/h 22.5 km/h 81 % 0 mm
13:23 2.9 °C -0.1 °C 1021.2 hPa ENE 14.5 km/h 20.9 km/h 81 % 0 mm
13:28 2.9 °C 0.2 °C 1021.2 hPa East 14.5 km/h 20.9 km/h 82 % 0 mm
13:33 2.9 °C 0 °C 1021.2 hPa ENE 14.5 km/h 25.7 km/h 81 % 0 mm
13:38 2.9 °C 0.2 °C 1020.9 hPa ENE 15 km/h 20.4 km/h 82 % 0 mm
13:43 2.9 °C 0.2 °C 1020.9 hPa ENE 19.8 km/h 29.6 km/h 82 % 0 mm
13:48 2.9 °C 0.3 °C 1020.9 hPa ENE 13.8 km/h 18.5 km/h 83 % 0 mm
13:53 3 °C 0.4 °C 1020.9 hPa ENE 13 km/h 18.5 km/h 83 % 0 mm
13:58 2.9 °C 0.5 °C 1020.9 hPa East 14.6 km/h 18.5 km/h 84 % 0 mm
14:03 2.9 °C 0.5 °C 1020.5 hPa East 16.7 km/h 22.2 km/h 84 % 0 mm
14:08 2.9 °C 0.6 °C 1020.2 hPa ENE 17.4 km/h 20.9 km/h 85 % 0 mm
14:13 2.9 °C 0.8 °C 1020.2 hPa East 14.6 km/h 20.4 km/h 86 % 0 mm
14:18 3 °C 0.9 °C 1020.5 hPa East 13 km/h 16.1 km/h 86 % 0 mm
14:23 3.1 °C 0.9 °C 1020.2 hPa ENE 14.8 km/h 20.4 km/h 86 % 0 mm
14:28 3.1 °C 0.9 °C 1020.2 hPa ENE 15.8 km/h 20.9 km/h 86 % 0 mm
14:33 3 °C 0.9 °C 1020.2 hPa ENE 13.8 km/h 18.5 km/h 86 % 0 mm
14:38 3 °C 0.9 °C 1020.2 hPa East 13.5 km/h 18.5 km/h 86 % 0 mm
14:43 3 °C 0.9 °C 1020.2 hPa ENE 12.7 km/h 16.7 km/h 86 % 0 mm
14:49 3.1 °C 0.9 °C 1020.2 hPa ENE 11.4 km/h 16.7 km/h 86 % 0 mm
14:54 3.1 °C 0.9 °C 1020.5 hPa East 11.9 km/h 14.8 km/h 86 % 0 mm
14:58 3.1 °C 1 °C 1020.2 hPa ENE 12.2 km/h 16.7 km/h 86 % 0 mm
15:04 3.2 °C 1.1 °C 1020.2 hPa East 11.6 km/h 14.8 km/h 86 % 0 mm
15:09 3.2 °C 1.1 °C 1020.5 hPa East 10.6 km/h 11.3 km/h 86 % 0 mm
15:14 3.2 °C 0.9 °C 1020.5 hPa ENE 11.7 km/h 13 km/h 85 % 0 mm
15:15 3.2 °C 0.9 °C 1020.5 hPa East 10.3 km/h 14.8 km/h 85 % 0 mm
15:20 3.2 °C 0.9 °C 1020.5 hPa ENE 10.6 km/h 16.7 km/h 85 % 0 mm
15:25 3.2 °C 0.8 °C 1020.5 hPa NE 11.6 km/h 16.7 km/h 84 % 0 mm
15:30 3.2 °C 0.9 °C 1020.5 hPa ENE 10.3 km/h 14.5 km/h 85 % 0 mm
15:35 3.2 °C 0.8 °C 1020.2 hPa ENE 12.1 km/h 16.7 km/h 84 % 0 mm
15:40 3.2 °C 0.8 °C 1020.2 hPa ENE 12.2 km/h 16.7 km/h 84 % 0 mm
15:45 3.2 °C 0.8 °C 1020.2 hPa ENE 13 km/h 16.7 km/h 84 % 0 mm
15:50 3.2 °C 0.8 °C 1020.2 hPa East 10.8 km/h 14.8 km/h 84 % 0 mm
15:55 3.2 °C 0.6 °C 1020.5 hPa ENE 13.7 km/h 20.4 km/h 83 % 0 mm
16:00 3.2 °C 0.6 °C 1020.5 hPa East 11.6 km/h 18.5 km/h 83 % 0 mm
16:05 3.2 °C 0.4 °C 1020.5 hPa ENE 10.1 km/h 16.7 km/h 82 % 0 mm
16:10 3.1 °C 0.3 °C 1020.2 hPa East 13.8 km/h 18.5 km/h 82 % 0 mm
16:16 3.1 °C 0.3 °C 1020.2 hPa ENE 10.3 km/h 16.7 km/h 82 % 0 mm
16:21 3.1 °C 0.4 °C 1020.5 hPa ENE 11.7 km/h 16.7 km/h 83 % 0 mm
16:26 2.9 °C 0.5 °C 1020.2 hPa ENE 12.9 km/h 16.7 km/h 84 % 0 mm
16:31 2.9 °C 0.6 °C 1020.2 hPa East 11.6 km/h 16.7 km/h 85 % 0 mm
16:36 2.8 °C 0.5 °C 1020.2 hPa East 13 km/h 16.7 km/h 85 % 0 mm
16:41 2.7 °C 0.6 °C 1020.2 hPa East 12.6 km/h 16.7 km/h 86 % 0 mm
16:46 2.6 °C 0.6 °C 1020.2 hPa East 11.4 km/h 14.8 km/h 87 % 0 mm
16:51 2.5 °C 0.7 °C 1020.2 hPa East 12.1 km/h 18.5 km/h 88 % 0 mm
16:56 2.5 °C 0.9 °C 1020.2 hPa ENE 12.2 km/h 16.7 km/h 89 % 0 mm
17:01 2.4 °C 0.8 °C 1020.5 hPa ENE 11.9 km/h 18.5 km/h 89 % 0 mm
17:06 2.4 °C 0.8 °C 1020.2 hPa East 10.8 km/h 13 km/h 89 % 0 mm
17:11 2.4 °C 0.8 °C 1020.5 hPa ENE 9.3 km/h 13 km/h 89 % 0.25 mm
17:16 2.3 °C 0.7 °C 1020.2 hPa East 12.1 km/h 16.7 km/h 89 % 0.25 mm
17:21 2.3 °C 0.7 °C 1020.2 hPa ESE 14.3 km/h 19.3 km/h 89 % 0.25 mm
17:26 2.3 °C 0.8 °C 1019.9 hPa East 13.2 km/h 16.7 km/h 90 % 0.25 mm
17:31 2.3 °C 0.8 °C 1019.9 hPa East 12.6 km/h 16.7 km/h 90 % 0.25 mm
17:36 2.3 °C 0.7 °C 1019.9 hPa East 13.8 km/h 16.7 km/h 89 % 0.25 mm
17:41 2.4 °C 0.8 °C 1019.9 hPa East 13.2 km/h 18.5 km/h 89 % 0.25 mm
17:46 2.4 °C 0.8 °C 1019.9 hPa ENE 14.2 km/h 20.4 km/h 89 % 0.25 mm
17:51 2.4 °C 0.6 °C 1020.2 hPa East 11.9 km/h 18.5 km/h 88 % 0.25 mm
17:57 2.4 °C 0.7 °C 1020.2 hPa ENE 15 km/h 18.5 km/h 88 % 0.25 mm
18:02 2.4 °C 0.5 °C 1020.5 hPa ENE 11.3 km/h 22.2 km/h 87 % 0.25 mm
18:07 2.4 °C 0.5 °C 1020.5 hPa ENE 12.2 km/h 16.7 km/h 87 % 0.25 mm
18:12 2.4 °C 0.5 °C 1020.5 hPa ENE 11.3 km/h 13 km/h 87 % 0 mm
18:17 2.4 °C 0.3 °C 1020.5 hPa ENE 12.6 km/h 16.7 km/h 86 % 0 mm
18:22 2.4 °C 0.3 °C 1020.5 hPa East 10.5 km/h 14.8 km/h 86 % 0 mm
18:27 2.5 °C 0.2 °C 1020.5 hPa ENE 10.3 km/h 13 km/h 85 % 0 mm
18:32 2.6 °C 0.3 °C 1020.5 hPa ENE 9 km/h 13 km/h 85 % 0 mm
18:37 2.6 °C 0.1 °C 1020.9 hPa ENE 8.4 km/h 14.8 km/h 84 % 0 mm
18:42 2.6 °C 0.2 °C 1020.9 hPa East 9.3 km/h 12.9 km/h 84 % 0 mm
18:47 2.7 °C 0.1 °C 1021.2 hPa ENE 11.7 km/h 16.7 km/h 83 % 0 mm
18:52 2.7 °C 0.1 °C 1021.2 hPa East 10.9 km/h 16.7 km/h 83 % 0 mm
18:57 2.7 °C -0.1 °C 1021.2 hPa NE 11.3 km/h 14.8 km/h 82 % 0 mm
19:02 2.7 °C -0.1 °C 1021.2 hPa ENE 10.1 km/h 16.7 km/h 82 % 0 mm
19:07 2.7 °C -0.1 °C 1021.2 hPa ENE 12.7 km/h 14.8 km/h 82 % 0 mm
19:12 2.6 °C -0.2 °C 1021.2 hPa ENE 13.5 km/h 16.7 km/h 82 % 0 mm
19:17 2.6 °C -0.1 °C 1021.2 hPa East 11.9 km/h 18.5 km/h 83 % 0 mm
19:22 2.4 °C -0.2 °C 1021.2 hPa ENE 15.4 km/h 19.3 km/h 83 % 0 mm
19:27 2.4 °C -0.1 °C 1021.2 hPa ENE 15.8 km/h 22.2 km/h 84 % 0 mm
19:32 2.3 °C -0.1 °C 1021.2 hPa ENE 16.1 km/h 20.4 km/h 84 % 0 mm
19:37 2.3 °C 0 °C 1021.2 hPa East 17.4 km/h 24.1 km/h 85 % 0 mm
19:42 2.3 °C 0 °C 1020.9 hPa East 18.7 km/h 24.1 km/h 85 % 0 mm
19:47 2.3 °C 0 °C 1020.9 hPa ENE 16.9 km/h 22.2 km/h 85 % 0 mm
19:52 2.3 °C 0.1 °C 1020.9 hPa ENE 16.4 km/h 20.9 km/h 85 % 0 mm
20:01 2.4 °C 0.2 °C 1020.9 hPa ENE 13.5 km/h 16.7 km/h 85 % 0 mm
20:06 2.4 °C 0.2 °C 1020.9 hPa East 20.4 km/h 22.2 km/h 85 % 0 mm
20:11 2.5 °C 0.2 °C 1020.5 hPa East 14.3 km/h 20.4 km/h 85 % 0 mm
20:21 2.6 °C 0.3 °C 1020.5 hPa ENE 16.7 km/h 18.5 km/h 85 % 0 mm
20:26 2.6 °C 0.3 °C 1020.5 hPa ENE 13.8 km/h 18.5 km/h 85 % 0 mm
20:32 2.6 °C 0.5 °C 1020.9 hPa East 16.3 km/h 20.4 km/h 86 % 0 mm
20:37 2.7 °C 0.4 °C 1020.9 hPa East 17.1 km/h 24.1 km/h 85 % 0 mm
20:42 2.7 °C 0.4 °C 1020.9 hPa ENE 14.2 km/h 24.1 km/h 85 % 0 mm
20:47 2.8 °C 0.8 °C 1020.9 hPa ENE 14.6 km/h 24.1 km/h 87 % 0 mm
20:52 2.8 °C 0.8 °C 1020.9 hPa ENE 18.8 km/h 27.8 km/h 87 % 0 mm
20:57 2.8 °C 1 °C 1020.9 hPa ENE 18.2 km/h 25.9 km/h 88 % 0 mm
21:02 2.8 °C 0.8 °C 1020.9 hPa ENE 17.2 km/h 25.9 km/h 87 % 0 mm
21:12 2.8 °C 0.5 °C 1020.9 hPa ENE 17.5 km/h 27.8 km/h 85 % 0 mm
21:17 2.8 °C 0.5 °C 1020.9 hPa East 17.9 km/h 22.5 km/h 85 % 0 mm
21:22 2.8 °C 0.5 °C 1020.9 hPa East 18 km/h 22.5 km/h 85 % 0 mm
21:27 2.8 °C 0.5 °C 1020.9 hPa East 15 km/h 22.2 km/h 85 % 0 mm
21:32 2.7 °C 0.3 °C 1020.9 hPa ENE 19.8 km/h 27.8 km/h 84 % 0 mm
21:37 2.7 °C 0.1 °C 1020.9 hPa East 18.8 km/h 25.9 km/h 83 % 0 mm
21:42 2.7 °C 0.1 °C 1020.5 hPa ENE 16.1 km/h 24.1 km/h 83 % 0 mm
21:47 2.7 °C 0.1 °C 1020.9 hPa East 15.1 km/h 22.5 km/h 83 % 0 mm
21:52 2.7 °C -0.1 °C 1020.9 hPa East 17.1 km/h 22.2 km/h 82 % 0 mm
21:57 2.7 °C -0.1 °C 1020.9 hPa East 16.6 km/h 22.2 km/h 82 % 0 mm
22:02 2.7 °C -0.1 °C 1020.5 hPa ENE 16.4 km/h 25.9 km/h 82 % 0 mm
22:07 2.7 °C -0.2 °C 1020.5 hPa ENE 16.3 km/h 22.2 km/h 81 % 0 mm
22:12 2.7 °C -0.2 °C 1020.5 hPa NE 15.8 km/h 20.9 km/h 81 % 0 mm
22:17 2.7 °C -0.2 °C 1020.5 hPa ENE 18 km/h 24.1 km/h 81 % 0 mm
22:22 2.8 °C -0.2 °C 1020.5 hPa East 15.6 km/h 18.5 km/h 81 % 0 mm
22:27 2.7 °C -0.1 °C 1020.5 hPa East 17.2 km/h 29.6 km/h 82 % 0 mm
22:33 2.7 °C -0.1 °C 1020.5 hPa East 21.2 km/h 25.9 km/h 82 % 0 mm
22:38 2.7 °C -0.1 °C 1020.5 hPa ENE 19.3 km/h 27.4 km/h 82 % 0 mm
22:43 2.7 °C -0.1 °C 1020.5 hPa ENE 19.3 km/h 35.4 km/h 82 % 0 mm
22:48 2.6 °C -0.2 °C 1020.9 hPa East 20.3 km/h 24.1 km/h 82 % 0 mm
22:53 2.6 °C -0.2 °C 1020.5 hPa ENE 16.1 km/h 27.4 km/h 82 % 0 mm
22:58 2.6 °C -0.4 °C 1020.5 hPa East 21.9 km/h 29.6 km/h 81 % 0 mm
23:03 2.4 °C -0.5 °C 1020.5 hPa ENE 19.2 km/h 25.9 km/h 81 % 0 mm
23:08 2.4 °C -0.5 °C 1020.5 hPa ENE 17.9 km/h 29 km/h 81 % 0 mm
23:13 2.4 °C -0.6 °C 1020.5 hPa East 19.5 km/h 33.3 km/h 81 % 0 mm
23:18 2.3 °C -0.6 °C 1020.5 hPa East 18.5 km/h 24.1 km/h 81 % 0 mm
23:23 2.3 °C -0.7 °C 1020.5 hPa East 21.1 km/h 35.2 km/h 81 % 0 mm
23:26 2.2 °C -0.9 °C 1020.5 hPa ENE 24 km/h 31.5 km/h 80 % 0 mm
23:31 2.2 °C -0.9 °C 1020.5 hPa East 23.3 km/h 31.5 km/h 80 % 0 mm
23:36 2.2 °C -0.9 °C 1020.5 hPa East 19.2 km/h 31.5 km/h 80 % 0 mm
23:41 2.1 °C -1 °C 1020.9 hPa ENE 21.4 km/h 31.5 km/h 80 % 0 mm
23:46 2.1 °C -1 °C 1020.5 hPa East 22.4 km/h 29.6 km/h 80 % 0 mm
23:51 2.1 °C -0.7 °C 1020.5 hPa ENE 22.2 km/h 35.2 km/h 82 % 0 mm
Crab Meadow Weather
Compliments of Weather Underground - 3 mb

Script developed by  Jim McMurry - jmcmurry@mwt.net Adapted for the template by  Wim van der Kuil - Leuven-Template.eu

Astronomy: It takes Saturn exactly 29.46 years to travel once around the Sun.